STARLINK-36783, 67873

Orbit data source: Space-Track

STARLINK-36783, 67873 is a payload satellite owned by SpaceX/Seattle (US) in LEO that was launched on Fri, 20 Feb 2026 UTC via an FALCON 9 launch vehicle from the Air Force Eastern Test Range (AFETR). Payload-class satellites include a variety of spacecraft equipped with specific instruments for various scientific and technological missions. These include communications satellites like Starlink; space stations such as the ISS; scientific satellites like the Hubble; Earth observation satellites from companies like Planet Labs, Umbra, and HawkEye 360; GPS; miniature CubeSats for education and research; and military/defense satellites.

Loading next visibility...
Identifier
67873, 2026-034Z
Orbit
LEO
Country
Flag of USUS
Related business
Manufacturer
SpaceX/Seattle
Mission
Operational Commercial Communications
Bus & Motor
STARLINK V2MO, Unknown motor
Mass
575 kg wet, ~530 kg dry
Launch date (UTC)
2026-02-20 (4 months ago)
Launch vehicle
FALCON 9
Launch site
Air Force Eastern Test Range (AFETR)
Object type
Payload
Rocket body
Debris
Shape & HBR
Box + 2 Pan, 17.7 m
Radar Cross Section
36.964 m², Large (>1 m²)

Expand to show TLE details & history
Last TLE update: 14 hours ago

TLE from 14 hours ago
0 STARLINK-36783
1 67873U 26034Z   26171.24479433  .00019815  00000-0  59558-3 0  9998
2 67873  53.1583  85.3081 0001340 112.3947 247.7197 15.34423409 19774
Epoch: 2026-06-20T05:52Z
TLE epoch observation values (Epoch: 2026-06-20T05:52:30.230Z)
Latitude
-0.00005°
Longitude
88.71991°
Altitude
463.882 km
Speed
7.636 km/s
True Right ascension
05h 41m 13s
True Declination
0° 00' 00"
Sunlit
Object was in daylight at epoch
Visualization orbit readout
Latitude
Unknown
Longitude
Unknown
Altitude
Unknown
Speed
Unknown
Apparent Right ascension
Unknown
Apparent Declination
Unknown
Sunlit
N/A
Visualization observer readout
Local Sidereal Time
07:15:38
Azimuth
Unknown
Elevation
Unknown
Doppler factor
Unknown
Orbital elements
Apogee altitude
463.808 km
Perigee altitude
461.974 km
Semi-major axis
6,841.028 km
Eccentricity
0.00013
Inclination
53.1583°
RAAN
85.3081°
Arg. of periapsis
112.3947°
True anomaly
247.70549°
Mean anomaly
247.7197°
Eccentric anomaly
247.7126°
Mean motion
3.83585 °/min
Orbital period
93.85 mins
BSTAR
0.00059558
Loading maneuver chart data...
Computing Atmospheric mass density...
Loading historical data...
Loading historical data...
Loading historical data...
Loading historical data...
Loading historical data...
Loading historical data...
Loading historical data...

Documentation

Showing up to 5 results
|